• Join FlightAware (Why Join?)
  • Login
  • US Flag 
05:52AM EDT


 

Airport Tracker/Info


-or-


 

Live Flight TrackerFlight Track Log ✈ FLG3735 ✈ 07-Jun-2013 ✈ KDTW - KALB

Flight Track Log - Related Links

Times and Time Zones

All times are in EDT time to prevent confusion due to time zone crossing. See the FLG3735 flight status page for this flight to view local times or setup timezone preferences in your user account.

Time Position Orientation Groundspeed Altitude Reporting Facility
EDT Latitude Longitude Course Direction KTS MPH feet Rate Location/Type
10:08PM 42.2314 -83.3342 82° East 141 162 1,200  Level Cleveland Center
10:08PM 42.2503 -83.3211 27° Northeast 157 181 2,100 1,560 Climbing Cleveland Center
10:09PM 42.2886 -83.2889 32° Northeast 175 201 3,600 1,620 Climbing Cleveland Center
10:10PM 42.3400 -83.2322 39° Northeast 206 237 5,400 2,160 Climbing Cleveland Center
10:11PM 42.2868 -82.8994 75° East  Level FlightAware Approximate
10:11PM 42.3422 -83.1311 88° East 223 257 8,000  Level Cleveland Center
10:12PM 42.3167 -82.7493 82° East  Level FlightAware Approximate
10:12PM 42.3217 -83.0264 105° East 237 273 10,600  Level Cleveland Center
10:13PM 42.3321 -82.5952 82° East  Level FlightAware Approximate
10:13PM 42.2992 -82.9075 104° East 291 335 11,800  Level Cleveland Center
10:14PM 42.3119 -82.7789 82° East 322 371 13,500 1,500 Climbing Cleveland Center
10:15PM 42.3353 -82.6450 77° East 337 388 14,900 1,260 Climbing Cleveland Center
10:16PM 42.3589 -82.4994 78° East 370 426 16,100 1,200 Climbing Cleveland Center
10:17PM 42.3672 -82.3536 86° East 383 441 17,400 1,200 Climbing Cleveland Center
10:18PM 42.3778 -82.2050 84° East 390 449 18,600 1,140 Climbing Cleveland Center
10:19PM 42.3928 -82.0311 83° East 408 470 19,700 1,020 Climbing Cleveland Center
10:20PM 42.4050 -81.8767 84° East 415 478 20,700 720 Climbing Cleveland Center
10:21PM 42.4192 -81.7139 83° East 425 489 21,200 480 Climbing Cleveland Center
10:22PM 42.4311 -81.5650 84° East 434 499 21,700 480 Climbing Cleveland Center
10:23PM 42.4428 -81.3964 85° East 448 516 22,200 480 Climbing Cleveland Center
10:24PM 42.4542 -81.2247 85° East 458 527 22,700 480 Climbing Cleveland Center
10:25PM 42.4675 -81.0475 84° East 466 536 23,200 480 Climbing Cleveland Center
10:26PM 42.4828 -80.8789 83° East 460 529 23,700 480 Climbing Cleveland Center
10:27PM 42.4936 -80.6844 86° East 460 529 24,200 480 Climbing Cleveland Center
10:28PM 42.5061 -80.5100 84° East 469 540 24,700 480 Climbing Cleveland Center
10:29PM 42.5161 -80.3353 86° East 464 534 25,200 540 Climbing Cleveland Center
10:30PM 42.5283 -80.1606 85° East 464 534 25,800 540 Climbing Cleveland Center
10:31PM 42.5378 -79.9831 86° East 464 534 26,300 480 Climbing Cleveland Center
10:32PM 42.5514 -79.8025 84° East 464 534 26,800 480 Climbing Cleveland Center
10:33PM 42.5647 -79.6275 84° East 464 534 27,300 480 Climbing Cleveland Center
10:34PM 42.5733 -79.4469 86° East 464 534 27,800 480 Climbing Cleveland Center
10:35PM 42.5819 -79.2664 86° East 469 540 28,300 480 Climbing Cleveland Center
10:36PM 42.5922 -79.0883 85° East 474 545 28,800 300 Climbing Cleveland Center
10:37PM 42.6022 -78.9050 86° East 479 551 29,000 60 Climbing Cleveland Center
10:38PM 42.6100 -78.7214 87° East 479 551 29,000  Level Cleveland Center
10:39PM 42.6192 -78.5347 86° East 484 557 29,000  Level Cleveland Center
10:40PM 42.6283 -78.3511 86° East 484 557 29,000  Level Cleveland Center
10:41PM 42.6369 -78.1617 86° East 489 563 29,000  Level Cleveland Center
10:42PM 42.6453 -77.9722 87° East 494 568 29,000  Level Cleveland Center
10:43PM 42.6514 -77.7856 87° East 500 575 29,000  Level Cleveland Center
10:44PM 42.6592 -77.5989 87° East 500 575 29,000  Level Cleveland Center
10:46PM 42.6714 -77.3094 87° East 490 564 29,000  Level Boston Center
10:47PM 42.6769 -77.1233 88° East 490 564 29,000  Level Boston Center
10:48PM 42.6844 -76.9375 87° East 495 570 29,000  Level Boston Center
10:49PM 42.6917 -76.7514 87° East 495 570 29,000  Level Boston Center
10:50PM 42.6967 -76.5622 88° East 495 570 29,000  Level Boston Center
10:51PM 42.7031 -76.3792 87° East 495 570 29,000  Level Boston Center
10:52PM 42.7100 -76.1789 87° East 495 570 29,000  Level Boston Center
10:53PM 42.7139 -75.9925 88° East 495 570 29,000  Level Boston Center
10:54PM 42.7194 -75.8061 88° East 495 570 29,000 -600 Level Boston Center
10:55PM 42.7228 -75.6225 89° East 490 564 27,900 -1,980 Descending Boston Center
10:56PM 42.7256 -75.4447 89° East 490 564 25,100 -2,700 Descending Boston Center
10:57PM 42.7275 -75.2781 89° East 463 533 22,600 -2,520 Descending Boston Center
10:58PM 42.7317 -75.1169 88° East 436 502 20,100 -2,580 Descending Boston Center
10:59PM 42.7350 -74.9617 88° East 420 483 17,500 -2,520 Descending Boston Center
11:00PM 42.7361 -74.8147 89° East 407 468 15,100 -2,400 Descending Boston Center
11:00PM 42.7372 -74.7639 88° East 384 442 14,300 -2,040 Descending Boston Center
11:01PM 42.7392 -74.6678 88° East 387 445 13,100 -2,100 Descending Boston Center
11:02PM 42.7403 -74.6028 89° East 374 430 12,000 -2,040 Descending Boston Center
11:02PM 42.7417 -74.5294 88° East 377 434 11,100 -1,140 Descending Boston Center
11:03PM 42.7408 -74.4672 91° East 356 410 10,900 -600 Descending Boston Center
11:03PM 42.7419 -74.4050 89° East 345 397 10,500 -1,140 Descending Boston Center
11:04PM 42.7428 -74.3542 89° East 286 329 9,800 -1,500 Descending Boston Center
11:04PM 42.7436 -74.3003 89° East 289 333 9,000 -1,620 Descending Boston Center
11:05PM 42.7444 -74.2494 89° East 263 303 8,200 -1,440 Descending Boston Center
11:05PM 42.7392 -74.1983 98° East 275 316 7,600 -1,500 Descending Boston Center
11:06PM 42.7147 -74.1583 130° Southeast 276 318 6,700 -1,740 Descending Boston Center
11:06PM 42.6964 -74.1153 120° Southeast 262 302 5,900 -1,560 Descending Boston Center
11:07PM 42.6744 -74.0639 120° Southeast 252 290 5,000 -1,320 Descending Boston Center
11:07PM 42.6603 -74.0353 124° Southeast 257 296 4,600 -1,380 Descending Boston Center
11:08PM 42.6358 -73.9867 124° Southeast 242 278 3,600 -1,140 Descending Boston Center
11:08PM 42.6256 -73.9639 122° Southeast 245 282 3,500 -420 Descending Boston Center
11:09PM 42.6014 -73.9181 126° Southeast 211 243 3,200 -600 Descending Boston Center
11:09PM 42.5933 -73.8981 119° Southeast 231 266 2,900 -780 Descending Boston Center
11:10PM 42.5708 -73.8525 124° Southeast 231 266 2,500 -420 Descending Boston Center
11:10PM 42.5733 -73.8158 85° East 216 249 2,500 -240 Level Boston Center
11:11PM 42.5986 -73.8025 21° North 209 241 2,300 -540 Descending Boston Center
11:11PM 42.6217 -73.7972 10° North 122 140 2,000 -720 Descending Boston Center